Location: Gad�tanya
(48.0500°N, 20.8500°E)
Time: 03:33:33
(UTC+00:00)

CZ-4C R/B - Visible Passes

Search period start: 23 October 2020 00:00
Search period end: 02 November 2020 00:00
Orbit: 626 x 1375 km, 63.4° (Epoch: 22 October)

Date Brightness Start Highest point End Pass type
(mag) Time Alt. Az. Time Alt. Az. Time Alt. Az.
23 Oct 4.2 17:11:07 10° NW 17:15:58 22° N 17:19:39 15° NE visible
23 Oct 3.8 18:59:57 10° NW 19:04:49 37° N 19:04:49 37° N visible
23 Oct 4.9 20:48:20 10° NW 20:50:00 19° NW 20:50:00 19° NW visible
24 Oct 4.2 15:55:08 10° NW 15:59:35 21° N 16:04:39 10° NE visible
24 Oct 4.0 17:44:54 10° NW 17:50:24 27° NNE 17:52:05 25° NE visible
24 Oct 3.9 19:33:20 10° NW 19:37:16 37° NNW 19:37:16 37° NNW visible
24 Oct 5.3 21:22:03 10° NW 21:22:26 12° NW 21:22:26 12° NW visible
25 Oct 4.2 16:29:26 10° NW 16:34:08 21° N 16:39:23 10° NE visible
25 Oct 3.6 18:18:25 10° NW 18:24:33 37° NNE 18:24:33 37° NNE visible
25 Oct 4.4 20:06:47 10° NW 20:09:44 29° NW 20:09:44 29° NW visible
26 Oct 4.0 17:03:19 10° NW 17:08:37 25° NNE 17:11:53 19° NE visible
26 Oct 3.4 18:51:49 10° NW 18:57:04 47° N 18:57:04 47° N visible
26 Oct 4.9 20:40:24 10° NW 20:42:14 19° NW 20:42:14 19° NW visible
27 Oct 4.1 15:47:42 10° NW 15:52:19 21° N 15:57:31 10° NE visible
27 Oct 3.6 17:36:53 10° NW 17:42:56 34° NNE 17:44:25 31° NE visible
27 Oct 3.8 19:25:13 10° NW 19:29:35 43° NW 19:29:35 43° NW visible
27 Oct 5.4 21:14:29 10° WNW 21:14:47 11° WNW 21:14:47 11° WNW visible
28 Oct 4.0 16:21:41 10° NW 16:26:49 24° NNE 16:31:49 13° ENE visible
28 Oct 3.2 18:10:17 10° NW 18:16:59 50° NE 18:16:59 50° NE visible
28 Oct 4.3 19:58:47 10° NW 20:02:11 31° WNW 20:02:11 31° WNW visible
29 Oct 3.7 16:55:19 10° NW 17:01:11 31° NNE 17:04:27 23° ENE visible
29 Oct 3.1 18:43:41 10° NW 18:49:38 65° NNW 18:49:38 65° NNW visible
29 Oct 4.9 20:32:43 10° NW 20:34:50 19° WNW 20:34:50 19° WNW visible
30 Oct 3.3 17:28:46 10° NW 17:35:19 45° NE 17:37:08 39° ENE visible
30 Oct 3.6 19:17:11 10° NW 19:22:21 49° WNW 19:22:21 49° WNW visible
31 Oct 3.8 16:13:45 10° NW 16:19:25 29° NNE 16:24:43 14° ENE visible
31 Oct 2.8 18:02:09 10° NW 18:09:11 69° NE 18:09:56 65° E visible
31 Oct 4.4 19:50:59 10° NW 19:55:07 30° W 19:55:07 30° W visible
01 Nov 3.4 16:47:14 10° NW 16:53:37 40° NE 16:57:35 24° E visible
01 Nov 3.0 18:35:36 10° NW 18:42:48 75° SW 18:42:48 75° SW visible
01 Nov 5.1 20:25:30 10° WNW 20:28:01 17° W 20:28:01 17° W visible
